{"data":{"norad_id":54657,"epoch":"2026-09-20T03:46:15.916224Z","epoch_age_seconds":51555,"freshness":"FRESH","line1":"1 54657U 22166R   26263.15712866  .00000085  00000+0  17484-3 0  9998","line2":"2 54657  87.9277 225.0798 0002057  82.4220 277.7148 13.21827181184108","mean_motion":13.21827181,"eccentricity":0.0002057,"inclination_deg":87.9277,"raan_deg":225.0798,"arg_perigee_deg":82.422,"mean_anomaly_deg":277.7148,"bstar":0.00017484,"rev_number":18410,"period_min":108.94011113545,"perigee_km":1176.1946220526,"apogee_km":1179.3031134986,"semimajor_km":7555.8858677756,"source":"CELESTRAK","updated_at":"2026-09-20T09:00:44.744183Z"}}